Location: Unspecified
(0.0000°N, 0.0000°E)
Time: 19:34:07
(UTC+00:00)

Vanguard 1 - Pass Details

Date: 24 April 2026
Orbit: 654 x 3817 km, 34.2° (Epoch: 18 May)

Event Time Altitude Azimuth Distance (km) Brightness Sun altitude
Rises 00:47:22 0° 310° (NW) 7,898 14.7 -72.3°
Reaches altitude 10° 00:55:58 10° 326° (NW) 6,896 14.3 -70.8°
Maximum altitude 01:10:33 20° 7° (N) 5,584 13.9 -68.0°
Drops below altitude 10° 01:22:18 10° 48° (NE) 5,543 14.1 -65.5°
Sets 01:27:51 0° 65° (ENE) 6,010 14.5 -64.4°
